This demonstration page uses our WeatherBlox Daily Observations layout. Learn more.

36.17497, -115.13722

Hourly Observations for March 7, 2018

Temp ( °F °C ) Dew Point ( °F °C ) Humidity (%) Winds ( mph kmh ) Pressure ( in mb ) Visibility ( mi km ) Precip ( " mm )
12:53 am 00:53 Clear 47 8.3 4 -15.6 17 17 WNW 7 11 30.18 1022 10 16.0934 0 0
1:53 am 01:53 Clear 46 7.8 4 -15.6 17 17 Calm 30.17 1022 10 16.0934 0 0
2:53 am 02:53 Clear 44 6.7 6 -14.4 21 21 NW 3 6 30.14 1021 10 16.0934 0 0
3:53 am 03:53 Clear 41 5 5 -15 22 22 WNW 6 9 30.15 1021 10 16.0934 0 0
4:53 am 04:53 Clear 43 6.1 7 -13.9 22 22 WNW 6 9 30.16 1022 10 16.0934 0 0
5:53 am 05:53 Clear 46 7.8 2 -16.7 16 16 WNW 6 9 30.16 1021 10 16.0934 0 0
6:53 am 06:53 Sunny 46 7.8 4 -15.6 17 17 Calm 30.17 1022 10 16.0934 0 0
7:53 am 07:53 Sunny 49 9.4 8 -13.3 19 19 W 5 7 30.2 1023 10 16.0934 0 0
8:53 am 08:53 Sunny 53 11.7 -2 -18.9 10 10 SW 6 9 30.22 1023 10 16.0934 0 0
9:53 am 09:53 Sunny 54 12.2 2 -16.7 12 12 SW 3 6 30.21 1023 10 16.0934 0 0
10:53 am 10:53 Sunny 55 12.8 2 -16.7 11 11 Calm 30.2 1023 10 16.0934 0 0
11:53 am 11:53 Sunny 58 14.4 1 -17.2 10 10 Calm 30.16 1022 10 16.0934 0 0
12:53 pm 12:53 Sunny 58 14.4 -1 -18.3 9 9 Calm 30.15 1021 10 16.0934 0 0
1:53 pm 13:53 Sunny 60 15.6 0 -17.8 9 9 Calm 30.13 1020 10 16.0934 0 0
2:53 pm 14:53 Sunny 61 16.1 0 -17.8 8 8 Calm 30.11 1020 10 16.0934 0 0
3:53 pm 15:53 Sunny 61 16.1 0 -17.8 8 8 Calm 30.11 1020 10 16.0934 0 0
4:53 pm 16:53 Sunny 61 16.1 3 -16.1 10 10 S 3 6 30.1 1019 10 16.0934 0 0
5:53 pm 17:53 Partly Cloudy 60 15.6 5 -15 11 11 Calm 30.1 1019 10 16.0934 0 0
6:53 pm 18:53 Clear 60 15.6 5 -15 11 11 Calm 30.11 1020 10 16.0934 0 0
7:53 pm 19:53 Clear 57 13.9 8 -13.3 14 14 Calm 30.11 1020 10 16.0934 0 0
8:53 pm 20:53 Clear 52 11.1 13 -10.6 21 21 WNW 5 7 30.12 1020 10 16.0934 0 0
9:53 pm 21:53 Clear 48 8.9 13 -10.6 24 24 NW 6 9 30.13 1020 10 16.0934 0 0
10:53 pm 22:53 Clear 47 8.3 13 -10.6 25 25 NNW 5 7 30.12 1020 10 16.0934 0 0
11:53 pm 23:53 Clear 47 8.3 11 -11.7 23 23 NW 7 11 30.13 1020 10 16.0934 0 0

Powered by AerisWeather